�������l�o���
Date,Time,MP-1(��Sv/h),MP-2(��Sv/h),MP-3(��Sv/h),MP-4(��Sv/h),MP-5(��Sv/h),MP-6(��Sv/h),MP-7(��Sv/h),MP-8(��Sv/h),����,����(m/s),���J
2023/10/01,00:00,0.527,0.804,0.493,0.993,0.717,0.322,0.574,0.534,���k��,0.6,��
2023/10/01,00:10,0.527,0.803,0.494,0.993,0.717,0.322,0.575,0.534,-,CALM,��
2023/10/01,00:20,0.527,0.802,0.494,0.996,0.718,0.322,0.574,0.532,-,CALM,��
2023/10/01,00:30,0.526,0.802,0.493,0.995,0.716,0.322,0.574,0.533,-,CALM,��
2023/10/01,00:40,0.527,0.801,0.493,0.993,0.715,0.320,0.575,0.535,-,CALM,��
2023/10/01,00:50,0.527,0.803,0.495,0.995,0.715,0.322,0.575,0.536,���k��,0.6,�L
2023/10/01,01:00,0.527,0.802,0.495,0.995,0.718,0.323,0.575,0.533,�쐼,0.6,�L
2023/10/01,01:10,0.529,0.801,0.496,0.997,0.717,0.322,0.575,0.536,��쐼,0.9,�L
2023/10/01,01:20,0.528,0.804,0.496,0.996,0.718,0.322,0.576,0.533,��쓌,0.8,�L
2023/10/01,01:30,0.528,0.805,0.496,0.996,0.718,0.324,0.574,0.533,-,CALM,�L
2023/10/01,01:40,0.529,0.803,0.496,0.995,0.719,0.323,0.575,0.534,-,CALM,��
2023/10/01,01:50,0.529,0.804,0.494,0.996,0.719,0.324,0.574,0.534,��쐼,0.9,��
2023/10/01,02:00,0.529,0.802,0.495,0.997,0.717,0.324,0.575,0.534,�쐼,1.1,�L
2023/10/01,02:10,0.529,0.804,0.495,0.995,0.716,0.324,0.573,0.534,�쐼,0.9,�L
2023/10/01,02:20,0.530,0.803,0.495,0.997,0.718,0.323,0.575,0.535,��쐼,1.1,�L
2023/10/01,02:30,0.531,0.804,0.497,0.996,0.718,0.324,0.576,0.534,��쐼,0.6,�L
2023/10/01,02:40,0.529,0.803,0.496,0.994,0.718,0.324,0.575,0.533,-,CALM,�L
2023/10/01,02:50,0.529,0.803,0.495,0.996,0.718,0.324,0.574,0.533,�쓌,0.8,�L
2023/10/01,03:00,0.529,0.802,0.496,0.998,0.717,0.324,0.576,0.535,��,1.1,�L
2023/10/01,03:10,0.530,0.804,0.495,0.995,0.718,0.325,0.575,0.534,-,CALM,�L
2023/10/01,03:20,0.530,0.805,0.497,0.999,0.720,0.325,0.575,0.535,�k��,3.7,�L
2023/10/01,03:30,0.529,0.801,0.496,0.998,0.719,0.326,0.578,0.534,���k��,4.1,�L
2023/10/01,03:40,0.529,0.804,0.498,0.997,0.718,0.326,0.574,0.533,�k��,1.7,�L
2023/10/01,03:50,0.529,0.803,0.496,0.998,0.717,0.324,0.572,0.532,�k,1.9,�L
2023/10/01,04:00,0.528,0.802,0.496,1.000,0.717,0.324,0.574,0.531,�k,2.3,�L
2023/10/01,04:10,0.528,0.799,0.494,0.998,0.716,0.324,0.572,0.531,�k,2.3,�L
2023/10/01,04:20,0.528,0.800,0.494,0.996,0.717,0.325,0.573,0.531,�k�k��,2.6,��
2023/10/01,04:30,0.528,0.799,0.495,0.996,0.716,0.321,0.573,0.530,�k�k��,2.6,�L
2023/10/01,04:40,0.525,0.800,0.493,0.995,0.717,0.324,0.573,0.533,�k,3.2,�L
2023/10/01,04:50,0.527,0.798,0.494,0.997,0.715,0.323,0.572,0.533,�k,3.5,�L
2023/10/01,05:00,0.527,0.800,0.494,0.997,0.716,0.323,0.574,0.530,�k,3.2,��
2023/10/01,05:10,0.526,0.795,0.492,0.995,0.715,0.322,0.571,0.530,�k�k��,2.8,��
2023/10/01,05:20,0.525,0.798,0.493,0.996,0.715,0.322,0.574,0.531,�k�k��,2.5,��
2023/10/01,05:30,0.526,0.799,0.492,0.996,0.716,0.323,0.571,0.531,�k�k��,2.3,��
2023/10/01,05:40,0.525,0.797,0.491,0.994,0.712,0.323,0.573,0.531,�k�k��,1.7,�L
2023/10/01,05:50,0.524,0.798,0.494,0.996,0.714,0.322,0.573,0.531,�k�k��,1.7,�L
2023/10/01,06:00,0.525,0.798,0.494,0.995,0.715,0.321,0.574,0.532,�k,3.1,�L
2023/10/01,06:10,0.525,0.795,0.493,0.995,0.714,0.321,0.574,0.531,�k�k��,1.7,�L
2023/10/01,06:20,0.525,0.797,0.492,0.995,0.714,0.322,0.572,0.532,�k,1.2,�L
2023/10/01,06:30,0.525,0.797,0.493,0.994,0.714,0.323,0.573,0.533,-,CALM,�L
2023/10/01,06:40,0.529,0.800,0.496,0.998,0.718,0.325,0.572,0.533,���쐼,1.2,�L
2023/10/01,06:50,-,-,-,-,-,-,-,-,-,-,-
2023/10/01,07:00,0.527,0.789,0.497,0.991,0.711,0.327,0.569,0.529,�k��,3.1,�L
2023/10/01,07:10,0.528,0.787,0.499,0.987,0.708,0.328,0.568,0.528,�k�k��,2.3,�L
2023/10/01,07:20,0.528,0.788,0.499,0.987,0.707,0.328,0.568,0.528,�k��,2.5,�L
2023/10/01,07:30,0.528,0.789,0.497,0.984,0.705,0.327,0.569,0.527,���k��,3.3,�L
2023/10/01,07:40,0.526,0.786,0.498,0.984,0.705,0.328,0.566,0.527,���k��,2.0,�L
2023/10/01,07:50,0.526,0.788,0.496,0.980,0.704,0.329,0.569,0.528,�k��,2.8,�L
2023/10/01,08:00,0.527,0.784,0.496,0.981,0.705,0.330,0.566,0.528,�k�k��,3.4,�L
2023/10/01,08:10,-,-,-,-,-,-,-,-,-,-,-
2023/10/01,08:20,0.524,0.782,0.495,0.975,0.702,0.326,0.566,0.528,�k��,3.1,�L
2023/10/01,08:30,0.525,0.783,0.496,0.978,0.703,0.328,0.568,0.526,�k��,5.8,�L
2023/10/01,08:40,0.525,0.786,0.495,0.975,0.700,0.326,0.566,0.527,�k�k��,5.5,�L
2023/10/01,08:50,0.527,0.784,0.493,0.973,0.699,0.325,0.565,0.526,�k�k��,4.5,�L
2023/10/01,09:00,0.522,0.782,0.490,0.972,0.699,0.324,0.565,0.526,�k�k��,3.8,��
2023/10/01,09:10,0.520,0.781,0.491,0.970,0.697,0.321,0.565,0.525,�k,4.7,��
2023/10/01,09:20,0.518,0.780,0.489,0.970,0.696,0.321,0.564,0.526,�k,4.1,��
2023/10/01,09:30,0.517,0.776,0.488,0.970,0.693,0.319,0.564,0.526,�k,2.9,��
2023/10/01,09:40,0.514,0.776,0.487,0.966,0.693,0.320,0.564,0.527,�k�k��,3.0,��
2023/10/01,09:50,0.514,0.775,0.484,0.970,0.693,0.319,0.564,0.525,�k�k��,3.5,�L
2023/10/01,10:00,0.514,0.776,0.485,0.965,0.694,0.317,0.564,0.524,�k�k��,3.8,�L
2023/10/01,10:10,0.513,0.774,0.484,0.970,0.690,0.318,0.563,0.523,�k�k��,3.2,�L
2023/10/01,10:20,0.512,0.774,0.482,0.968,0.694,0.319,0.564,0.524,�k,3.3,��
2023/10/01,10:30,0.512,0.772,0.483,0.968,0.691,0.318,0.564,0.524,�k�k��,3.0,��
2023/10/01,10:40,-,-,-,-,-,-,-,-,-,-,-
2023/10/01,10:50,0.510,0.773,0.481,0.965,0.692,0.317,0.563,0.523,�k,2.6,�L
2023/10/01,11:00,0.509,0.772,0.482,0.964,0.693,0.317,0.563,0.525,�k�k��,2.5,�L
2023/10/01,11:10,0.511,0.774,0.482,0.965,0.692,0.317,0.563,0.523,�k�k��,2.2,��
2023/10/01,11:20,0.510,0.772,0.481,0.965,0.693,0.317,0.564,0.524,�k�k��,2.3,��
2023/10/01,11:30,0.510,0.772,0.480,0.966,0.691,0.316,0.564,0.525,�k,2.3,��
2023/10/01,11:40,0.510,0.770,0.481,0.966,0.692,0.317,0.564,0.525,�k�k��,1.9,��
2023/10/01,11:50,0.510,0.770,0.478,0.964,0.695,0.315,0.564,0.525,�k�k��,1.1,��
2023/10/01,12:00,0.510,0.770,0.480,0.964,0.692,0.316,0.565,0.525,�k��,2.0,�L
2023/10/01,12:10,0.510,0.769,0.480,0.965,0.692,0.318,0.564,0.524,�k��,1.7,��
2023/10/01,12:20,0.510,0.771,0.480,0.968,0.691,0.317,0.564,0.523,���k��,1.1,��
2023/10/01,12:30,0.510,0.773,0.480,0.966,0.692,0.316,0.564,0.526,-,CALM,��
2023/10/01,12:40,0.510,0.772,0.480,0.966,0.692,0.317,0.565,0.524,-,CALM,��
2023/10/01,12:50,0.512,0.773,0.480,0.966,0.693,0.315,0.566,0.525,���쐼,0.6,��
2023/10/01,13:00,0.509,0.774,0.480,0.966,0.691,0.315,0.564,0.525,�k��,0.6,��
2023/10/01,13:10,0.511,0.773,0.480,0.968,0.691,0.315,0.563,0.525,-,CALM,��
2023/10/01,13:20,0.510,0.774,0.483,0.964,0.692,0.315,0.566,0.525,��쐼,1.4,��
2023/10/01,13:30,0.511,0.772,0.480,0.966,0.690,0.317,0.564,0.523,���쐼,0.8,�L
2023/10/01,13:40,0.511,0.774,0.480,0.966,0.691,0.315,0.565,0.523,��쓌,2.0,��
2023/10/01,13:50,0.512,0.773,0.479,0.965,0.693,0.317,0.566,0.523,��쓌,1.2,��
2023/10/01,14:00,0.511,0.775,0.480,0.965,0.689,0.316,0.565,0.524,��,1.5,��
2023/10/01,14:10,0.511,0.772,0.479,0.968,0.692,0.317,0.566,0.524,��쓌,2.2,��
2023/10/01,14:20,0.512,0.773,0.481,0.968,0.693,0.316,0.565,0.523,�쓌,2.3,��
2023/10/01,14:30,0.511,0.775,0.481,0.964,0.692,0.317,0.566,0.525,��쓌,2.0,��
2023/10/01,14:40,0.511,0.776,0.479,0.967,0.694,0.317,0.564,0.525,��쓌,2.3,��
2023/10/01,14:50,-,-,-,-,-,-,-,-,-,-,-
2023/10/01,15:00,0.512,0.776,0.479,0.964,0.693,0.316,0.565,0.525,��쓌,3.0,��
2023/10/01,15:10,0.511,0.776,0.480,0.964,0.694,0.317,0.564,0.525,��쓌,2.9,��
2023/10/01,15:20,0.512,0.778,0.478,0.968,0.693,0.316,0.565,0.525,�쓌,2.3,��
2023/10/01,15:30,0.512,0.776,0.481,0.965,0.695,0.316,0.565,0.524,�쓌,3.2,��
2023/10/01,15:40,0.511,0.776,0.481,0.966,0.692,0.317,0.566,0.524,�쓌,3.8,��
2023/10/01,15:50,0.512,0.774,0.481,0.966,0.692,0.317,0.565,0.525,��쓌,4.0,��
2023/10/01,16:00,0.511,0.775,0.481,0.967,0.694,0.317,0.566,0.525,��쓌,3.7,��
2023/10/01,16:10,0.512,0.776,0.481,0.968,0.693,0.317,0.564,0.524,��쓌,3.6,��
2023/10/01,16:20,0.512,0.776,0.482,0.966,0.692,0.315,0.565,0.524,��쓌,3.4,��
2023/10/01,16:30,0.512,0.776,0.482,0.968,0.694,0.316,0.565,0.527,��쓌,3.4,��
2023/10/01,16:40,0.512,0.776,0.482,0.965,0.696,0.316,0.564,0.525,��,3.4,��
2023/10/01,16:50,0.512,0.779,0.482,0.966,0.694,0.317,0.564,0.527,��쓌,3.6,�L
2023/10/01,17:00,0.512,0.778,0.482,0.968,0.694,0.316,0.564,0.524,��쓌,5.0,��
2023/10/01,17:10,0.513,0.777,0.480,0.969,0.693,0.316,0.567,0.526,��쓌,3.6,��
2023/10/01,17:20,0.512,0.776,0.480,0.967,0.694,0.316,0.565,0.525,��,3.2,��
2023/10/01,17:30,0.513,0.778,0.483,0.968,0.696,0.316,0.565,0.527,��,4.3,��
2023/10/01,17:40,0.512,0.780,0.481,0.970,0.693,0.318,0.567,0.526,��쓌,3.5,��
2023/10/01,17:50,0.513,0.780,0.483,0.968,0.694,0.317,0.567,0.527,��,4.2,��
2023/10/01,18:00,0.514,0.780,0.483,0.967,0.697,0.316,0.567,0.527,��,3.6,�L
2023/10/01,18:10,0.515,0.780,0.482,0.968,0.697,0.317,0.567,0.528,��쐼,2.3,��
2023/10/01,18:20,0.513,0.780,0.483,0.970,0.697,0.318,0.566,0.527,��쐼,2.5,��
2023/10/01,18:30,0.512,0.779,0.481,0.969,0.697,0.318,0.567,0.528,��쐼,3.4,��
2023/10/01,18:40,0.512,0.780,0.482,0.967,0.699,0.319,0.566,0.527,��쐼,2.2,��
2023/10/01,18:50,0.514,0.782,0.484,0.968,0.698,0.319,0.568,0.527,��,2.0,��
2023/10/01,19:00,0.511,0.780,0.484,0.970,0.698,0.317,0.565,0.525,��쓌,2.2,��
2023/10/01,19:10,0.515,0.779,0.483,0.970,0.696,0.318,0.568,0.528,��쓌,2.3,��
2023/10/01,19:20,0.513,0.780,0.483,0.968,0.698,0.317,0.567,0.526,��,2.0,��
2023/10/01,19:30,0.514,0.781,0.483,0.969,0.697,0.318,0.566,0.528,��,2.0,��
2023/10/01,19:40,0.516,0.784,0.483,0.966,0.697,0.317,0.566,0.528,��,2.6,��
2023/10/01,19:50,0.514,0.782,0.482,0.970,0.697,0.318,0.566,0.527,��,3.2,��
2023/10/01,20:00,0.514,0.781,0.482,0.970,0.698,0.318,0.568,0.526,��,2.9,��
2023/10/01,20:10,0.513,0.782,0.484,0.970,0.696,0.319,0.566,0.527,��,2.5,��
2023/10/01,20:20,0.515,0.784,0.483,0.971,0.697,0.319,0.567,0.527,��쐼,2.9,��
2023/10/01,20:30,0.514,0.781,0.484,0.971,0.697,0.320,0.565,0.527,�쐼,2.0,��
2023/10/01,20:40,0.513,0.781,0.483,0.968,0.699,0.317,0.566,0.528,�k��,2.0,��
2023/10/01,20:50,0.514,0.781,0.483,0.969,0.698,0.318,0.567,0.526,�k��,3.1,��
2023/10/01,21:00,0.515,0.781,0.483,0.971,0.695,0.317,0.567,0.528,�k�k��,3.0,��
2023/10/01,21:10,0.515,0.782,0.483,0.972,0.698,0.318,0.567,0.528,�k��,2.6,��
2023/10/01,21:20,0.514,0.780,0.483,0.970,0.697,0.318,0.565,0.528,���k��,2.9,��
2023/10/01,21:30,0.515,0.780,0.484,0.970,0.698,0.319,0.566,0.526,���k��,3.1,��
2023/10/01,21:40,0.514,0.781,0.484,0.972,0.699,0.317,0.566,0.527,�k��,2.5,��
2023/10/01,21:50,0.513,0.781,0.484,0.970,0.696,0.318,0.568,0.526,�k��,2.6,��
2023/10/01,22:00,0.515,0.781,0.483,0.969,0.700,0.318,0.567,0.528,�k�k��,2.8,��
2023/10/01,22:10,0.514,0.780,0.482,0.970,0.699,0.318,0.566,0.528,�k,4.5,��
2023/10/01,22:20,0.514,0.781,0.483,0.971,0.698,0.318,0.568,0.526,�k�k��,5.0,��
2023/10/01,22:30,0.514,0.780,0.484,0.971,0.699,0.319,0.567,0.528,�k�k��,5.3,��
2023/10/01,22:40,0.515,0.781,0.484,0.970,0.698,0.317,0.566,0.527,�k��,4.6,��
2023/10/01,22:50,0.515,0.782,0.482,0.971,0.697,0.318,0.567,0.527,�k��,4.0,��
2023/10/01,23:00,0.514,0.782,0.484,0.971,0.697,0.317,0.565,0.527,���k��,4.5,��
2023/10/01,23:10,0.516,0.782,0.484,0.971,0.697,0.318,0.565,0.527,��,7.4,��
2023/10/01,23:20,0.515,0.781,0.483,0.972,0.698,0.318,0.567,0.528,���k��,7.2,��
2023/10/01,23:30,0.514,0.781,0.482,0.972,0.697,0.319,0.568,0.526,���k��,7.0,��
2023/10/01,23:40,0.515,0.779,0.483,0.970,0.699,0.319,0.566,0.527,���k��,6.0,��
2023/10/01,23:50,-,-,-,-,-,-,-,-,-,-,-
